CW1575 Weather Reports


Display with metric or nautical units.
time (UTC)temp
F
wind
direction
speed
MPH
gust
MPH
rain 1hr
in
rain 24hr
in
rain mn
in
humidity
%
barometer
mb
20140731193518 73 139 1.0 5.0 0.00 0.82 0.04 53 1027.2
20140731192519 72 139 1.0 3.0 0.00 0.82 0.04 59 1027.5
20140731191518 71 136 2.0 7.0 0.00 0.82 0.04 56 1027.3
20140731190518 71 123 0.0 3.0 0.00 0.82 0.04 57 1027.4
20140731185518 71 123 1.0 3.0 0.00 0.82 0.04 56 1027.2
20140731184519 70 123 0.0 5.0 0.00 0.82 0.04 60 1027.4
20140731183518 70 117 2.0 6.0 0.00 0.82 0.04 62 1027.5
20140731182518 69 103 0.0 3.0 0.00 0.83 0.04 62 1027.5
20140731181518 69 102 0.0 3.0 0.00 0.85 0.04 62 1027.5
20140731180518 68 102 1.0 3.0 0.00 0.88 0.04 64 1027.4
20140731175518 67 101 0.0 3.0 0.00 0.92 0.04 69 1027.7
20140731174518 66 101 1.0 3.0 0.00 0.93 0.04 74 1027.9
20140731173518 65 100 0.0 3.0 0.00 0.97 0.04 77 1027.8
20140731172519 64 100 0.0 3.0 0.00 1.00 0.04 79 1027.9
20140731171518 64 94 0.0 3.0 0.00 1.02 0.04 80 1028.1
20140731170519 63 92 1.0 3.0 0.00 1.04 0.04 80 1027.6
20140731165518 63 81 0.0 3.0 0.00 1.07 0.04 82 1027.6
20140731164518 62 80 1.0 3.0 0.00 1.10 0.04 81 1027.4
20140731163518 62 80 0.0 3.0 0.00 1.11 0.04 85 1027.7
20140731162519 61 80 0.0 3.0 0.00 1.12 0.04 91 1027.5
20140731161518 61 80 1.0 3.0 0.00 1.13 0.04 95 1027.5
20140731160518 60 80 0.0 3.0 0.00 1.15 0.04 97 1027.5
20140731155518 60 80 0.0 1.0 0.00 1.20 0.04 98 1027.5
20140731154519 59 80 0.0 3.0 0.00 1.22 0.04 98 1027.5
20140731153518 59 80 0.0 3.0 0.00 1.23 0.04 99 1027.4
20140731152518 58 80 1.0 3.0 0.00 1.24 0.04 99 1027.5
20140731151518 58 80 0.0 3.0 0.00 1.27 0.04 99 1027.6
20140731150518 57 80 0.0 1.0 0.00 1.31 0.04 99 1027.7
20140731145519 57 80 0.0 1.0 0.00 1.32 0.04 99 1027.8
20140731144518 57 80 1.0 2.0 0.02 1.33 0.04 99 1027.7
20140731143518 57 80 0.0 1.0 0.03 1.35 0.04 99 1027.8
20140731142518 57 80 0.0 3.0 0.03 1.37 0.04 99 1027.5
20140731141519 56 80 0.0 2.0 0.03 1.40 0.04 99 1027.5
20140731140518 56 80 0.0 3.0 0.03 1.45 0.04 99 1027.5
20140731135518 56 81 0.0 0.0 0.03 1.46 0.04 98 1027.5
20140731134518 56 81 0.0 0.0 0.01 1.44 0.02 98 1027.4
20140731133519 56 81 0.0 0.0 0.00 1.43 0.01 98 1027.2
20140731132518 56 81 0.0 3.0 0.00 1.43 0.01 98 1027.2
20140731131518 56 81 0.0 2.0 0.00 1.44 0.01 98 1027.1
20140731130520 56 81 0.0 2.0 0.00 1.44 0.01 98 1027.1
20140731125519 56 81 0.0 1.0 0.00 1.44 0.01 98 1027.2
20140731124518 56 81 0.0 2.0 0.00 1.45 0.01 98 1026.9
20140731123518 56 81 0.0 2.0 0.00 1.46 0.01 98 1026.8
20140731122518 56 81 0.0 2.0 0.00 1.46 0.01 98 1026.7
20140731121519 56 81 0.0 2.0 0.00 1.46 0.01 98 1026.7
20140731120518 56 81 0.0 2.0 0.00 1.46 0.01 98 1026.6
20140731115539 56 81 0.0 0.0 0.00 1.46 0.01 98 1026.6
20140731113518 56 81 0.0 0.0 0.00 1.46 0.01 98 1026.2
20140731112518 56 81 0.0 0.0 0.00 1.47 0.01 98 1026.1
20140731111519 56 81 0.0 0.0 0.00 1.47 0.01 98 1026.1
20140731110518 56 81 0.0 0.0 0.00 1.49 0.01 98 1026.1
20140731105518 56 81 0.0 0.0 0.00 1.51 0.01 98 1026.0
20140731104518 56 81 0.0 0.0 0.00 1.53 0.01 98 1026.1
20140731103518 56 81 0.0 0.0 0.00 1.54 0.01 98 1026.0
20140731102518 56 81 0.0 0.0 0.00 1.54 0.01 98 1025.9
20140731101518 56 81 0.0 0.0 0.00 1.55 0.01 98 1025.9
20140731100518 56 81 0.0 0.0 0.00 1.56 0.01 98 1026.0
20140731095519 56 81 0.0 0.0 0.00 1.57 0.01 98 1026.2
20140731094518 56 81 0.0 0.0 0.00 1.58 0.01 98 1026.0
20140731093518 56 81 0.0 0.0 0.00 1.59 0.01 98 1026.2
20140731092517 56 81 0.0 1.0 0.00 1.60 0.01 98 1026.3
20140731091520 56 81 0.0 1.0 0.00 1.61 0.01 98 1026.2
20140731090518 55 81 0.0 0.0 0.00 1.62 0.01 98 1026.3
20140731085518 55 81 0.0 1.0 0.00 1.63 0.01 98 1026.3
20140731084518 55 81 0.0 2.0 0.00 1.65 0.01 98 1026.4
20140731083518 55 81 0.0 0.0 0.01 1.66 0.01 98 1026.4
20140731082518 55 81 0.0 0.0 0.01 1.69 0.01 98 1026.6
20140731081518 55 81 0.0 0.0 0.01 1.70 0.01 98 1026.6
20140731080519 55 81 0.0 0.0 0.01 1.72 0.01 98 1026.7
20140731075518 55 81 0.0 0.0 0.01 1.73 0.01 98 1026.8
20140731074518 55 81 0.0 0.0 0.01 1.74 0.01 98 1026.8
20140731073519 55 81 0.0 0.0 0.00 1.73 0.00 98 1027.0
20140731072517 55 81 0.0 0.0 0.00 1.74 0.00 98 1027.1
20140731071518 55 81 0.0 0.0 0.00 1.74 0.00 98 1027.2
20140731070519 55 81 0.0 0.0 0.00 1.74 0.00 97 1027.2
20140731065518 56 81 0.0 0.0 0.00 1.74 0.00 97 1027.2
20140731064518 56 81 0.0 0.0 0.00 1.75 0.00 97 1027.3
20140731063518 56 81 0.0 0.0 0.00 1.78 0.00 97 1027.4
20140731062518 56 81 0.0 0.0 0.00 1.80 0.00 97 1027.5
20140731061505 56 81 0.0 0.0 0.00 1.82 0.00 98 1027.6
20140731060519 56 81 0.0 0.0 0.00 1.84 0.00 98 1027.8
20140731055518 56 81 0.0 0.0 0.00 1.85 1.85 98 1027.8
20140731054518 56 81 0.0 0.0 0.00 1.86 1.85 97 1027.9
20140731053517 56 81 0.0 0.0 0.00 1.86 1.85 97 1027.9
20140731052518 56 81 0.0 0.0 0.00 1.87 1.85 97 1028.1
20140731051518 56 81 0.0 0.0 0.00 1.89 1.85 97 1028.1
20140731050519 56 81 0.0 3.0 0.00 1.94 1.85 97 1028.1
20140731045518 56 80 0.0 1.0 0.00 2.15 1.85 97 1028.5
20140731044516 56 80 0.0 1.0 0.00 2.18 1.85 97 1028.6
20140731043516 56 80 0.0 2.0 0.00 2.18 1.85 97 1028.7
20140731042517 56 80 1.0 3.0 0.00 2.18 1.85 97 1028.6
20140731041516 56 79 0.0 3.0 0.01 2.18 1.85 97 1028.7
20140731040517 56 79 0.0 2.0 0.01 2.18 1.85 97 1028.8
20140731035516 56 79 0.0 0.0 0.02 2.18 1.85 97 1028.9
20140731034516 56 79 0.0 0.0 0.03 2.18 1.85 97 1028.8
20140731033516 56 79 0.0 2.0 0.04 2.18 1.85 97 1028.9
20140731032516 56 79 0.0 2.0 0.06 2.18 1.85 97 1028.9
20140731031516 56 79 1.0 3.0 0.08 2.17 1.84 97 1028.8
20140731030516 56 78 0.0 1.0 0.10 2.17 1.84 97 1028.6
20140731025516 56 78 0.0 2.0 0.15 2.16 1.83 96 1028.5
20140731024516 56 78 0.0 1.0 0.20 2.15 1.82 97 1028.5
20140731023516 56 78 0.0 2.0 0.24 2.14 1.81 96 1028.3
20140731022516 56 78 0.0 0.0 0.25 2.12 1.79 96 1028.3
20140731021517 56 78 0.0 1.0 0.25 2.09 1.76 96 1028.4
20140731020516 56 78 0.0 2.0 0.26 2.07 1.74 96 1028.4
20140731015516 56 78 0.0 0.0 0.22 2.01 1.68 96 1028.5
20140731014515 56 78 0.0 3.0 0.20 1.95 1.62 95 1028.2
20140731013516 57 77 0.0 5.0 0.18 1.90 1.57 95 1028.1
20140731012516 57 355 0.0 3.0 0.18 1.88 1.54 95 1028.2
20140731011516 57 355 0.0 1.0 0.18 1.86 1.51 96 1028.0
20140731010517 57 355 0.0 3.0 0.20 1.83 1.48 96 1027.9
20140731005516 58 355 1.0 3.0 0.24 1.82 1.46 95 1028.2
20140731003526 58 355 0.0 3.0 0.19 1.74 1.37 95 1028.1
20140731002525 58 355 0.0 2.0 0.16 1.71 1.34 95 1027.9
20140731001526 58 355 0.0 3.0 0.13 1.67 1.30 95 1027.9
20140731000526 58 350 1.0 5.0 0.09 1.61 1.24 95 1027.8
20140730235525 58 350 0.0 6.0 0.07 1.57 1.20 94 1028.0
20140730234525 58 340 0.0 3.0 0.07 1.56 1.19 94 1027.9
20140730233525 58 340 1.0 6.0 0.08 1.55 1.18 94 1028.2
20140730232525 59 342 2.0 7.0 0.08 1.55 1.18 94 1028.2
20140730231525 59 313 1.0 5.0 0.07 1.54 1.17 94 1028.2
20140730230525 59 314 1.0 9.0 0.05 1.52 1.15 94 1028.2
20140730225525 59 327 2.0 6.0 0.03 1.50 1.13 94 1028.1
20140730224525 60 347 1.0 3.0 0.02 1.49 1.12 94 1028.0
20140730223525 60 347 0.0 5.0 0.00 1.47 1.10 94 1028.1
20140730222525 60 351 1.0 5.0 0.00 1.47 1.10 94 1028.1
20140730221526 60 355 1.0 3.0 0.00 1.47 1.10 94 1028.1
20140730220525 60 355 1.0 5.0 0.00 1.47 1.10 95 1028.1
20140730215525 60 355 0.0 5.0 0.00 1.47 1.10 95 1028.2
20140730214525 60 355 1.0 3.0 0.00 1.47 1.10 95 1028.1
20140730213525 59 355 1.0 3.0 0.00 1.47 1.10 95 1028.1
20140730212525 59 355 0.0 3.0 0.01 1.48 1.10 96 1028.0
20140730211525 59 355 0.0 2.0 0.01 1.49 1.10 96 1027.9
20140730210525 59 355 0.0 3.0 0.01 1.55 1.10 96 1027.9
20140730205525 58 355 1.0 3.0 0.02 1.55 1.10 95 1028.2
20140730204525 58 355 0.0 5.0 0.03 1.55 1.10 95 1028.2
20140730203526 58 0 1.0 6.0 0.03 1.55 1.10 95 1028.2
20140730202526 59 339 2.0 6.0 0.02 1.54 1.09 96 1028.0
20140730201525 59 330 0.0 5.0 0.02 1.54 1.09 96 1027.9
20140730200525 58 25 1.0 6.0 0.02 1.54 1.09 96 1027.8
20140730195525 58 20 2.0 8.0 0.01 1.53 1.08 96 1028.1
20140730194525 58 16 0.0 3.0 0.00 1.52 1.07 96 1028.1